Cloud_Cover
0 0 0 0 0 0 0 0 2 1 5 90 5 5 72 85 100 100 73 5 28 22 97 0 25 0 0 0 1 100 100 41 20 5 77 96 43 53 19 53 100 100 72 8
0 0 0 2 0 0 0 0 2 4 5 100 59 40 5 11 78 99 98 86 11 75 100 43 0 5 0 9 0 5 68 80 4 5 5 5 5 11 7 47 57 28 39 5
0 0 0 0 0 0 0 3 0 1 0 34 100 56 62 10 5 17 59 100 81 100 100 62 65 56 4 2 0 4 4 27 5 1 5 5 5 3 3 6 17 76 3 5
0 0 0 0 0 0 6 5 4 0 4 41 59 100 95 80 43 24 10 59 100 100 100 100 100 60 40 5 5 5 44 5 75 0 1 5 6 5 5 5 1 0 0 5
0 0 0 0 0 0 3 0 0 0 4 14 5 92 100 80 50 38 56 96 73 100 100 97 46 53 21 86 14 32 23 7 100 1 18 5 2 5 5 5 0 0 0 0
1 0 0 0 0 0 0 0 0 0 0 0 0 6 100 100 61 6 5 22 85 79 98 100 100 100 100 29 64 19 29 5 90 93 4 20 5 5 5 5 5 0 0 5
5 2 0 0 0 0 1 0 0 0 0 1 4 0 13 100 100 100 17 40 60 29 54 100 100 84 100 65 85 84 10 5 33 100 2 5 5 20 5 7 0 0 0 1
95 5 5 0 0 3 5 1 4 0 0 0 5 4 5 14 100 100 83 91 26 6 5 5 52 100 100 99 78 39 12 10 42 100 0 5 66 7 6 2 0 5 4 0
100 100 92 5 4 0 0 0 0 0 0 0 6 4 14 1 4 95 90 10 27 8 38 7 5 5 68 100 80 100 100 100 100 100 25 4 5 44 5 5 10 7 8 4
24 5 8 5 5 4 4 0 30 4 0 0 5 83 62 5 2 36 100 97 27 100 71 82 100 41 62 94 62 74 24 84 100 100 36 0 5 32 28 5 5 100 59 5
7 5 3 4 5 5 5 3 1 4 3 5 23 98 23 20 4 1 10 99 100 41 90 100 100 100 100 99 76 74 92 100 97 96 55 0 4 23 35 39 5 8 4 0
52 5 5 5 5 5 7 5 5 5 1 0 2 100 100 91 5 5 0 0 2 46 70 18 68 100 90 100 100 82 100 96 100 85 89 22 33 41 5 5 44 5 5 0
72 23 17 6 3 81 93 11 16 5 43 52 3 88 100 100 89 10 0 0 0 0 8 5 18 99 57 100 86 50 98 100 100 100 100 94 100 100 98 77 5 5 0 0
25 19 5 62 100 59 70 35 88 94 62 5 3 0 79 94 93 35 2 0 0 0 0 4 3 68 96 52 98 62 100 92 100 100 50 91 100 100 100 100 100 50 0 0
70 9 41 100 100 48 39 99 100 75 82 5 5 0 0 98 100 98 99 51 5 0 0 0 0 25 8 11 64 86 62 100 100 100 57 72 6 93 98 100 98 100 100 39
38 38 23 97 100 99 14 100 100 99 100 37 5 0 0 21 97 100 6 11 92 5 0 0 0 0 0 1 84 100 55 93 100 100 29 100 36 28 54 100 88 85 17 81
97 15 100 97 100 94 70 82 100 100 100 100 45 14 5 4 100 100 100 95 23 17 5 5 0 0 0 0 100 53 82 49 54 100 89 43 92 8 13 78 69 90 62 30
84 75 84 28 100 48 9 96 100 100 100 100 86 5 5 0 1 15 34 39 5 21 23 5 4 0 0 0 62 98 6 82 80 24 5 20 100 93 56 20 15 5 29 70
92 100 38 5 80 80 99 100 100 100 100 100 96 5 0 0 0 5 2 0 0 1 7 3 2 0 0 0 0 42 25 14 49 61 7 5 10 50 59 40 51 61 61 38
100 100 100 97 29 26 100 100 100 97 100 100 100 100 5 1 7 96 3 0 0 0 0 5 5 0 0 0 0 0 32 20 5 5 8 5 26 10 34 12 16 26 22 1
54 98 86 72 7 37 100 100 100 27 100 100 100 98 20 29 100 18 5 5 0 0 2 4 41 27 1 0 0 0 0 0 5 0 4 5 2 4 4 2 11 10 36 68
95 43 29 82 81 26 100 100 100 100 100 100 100 97 95 92 57 12 5 5 4 0 0 41 29 91 33 1 0 0 0 0 0 0 0 1 0 0 1 2 1 50 100 100
100 49 5 5 15 50 100 100 100 100 100 100 100 100 74 99 21 5 5 5 5 4 0 0 0 6 14 7 5 5 0 0 0 0 0 0 0 0 0 6 16 7 35 34
82 44 41 81 11 6 97 75 100 100 100 100 100 100 100 100 73 6 11 6 68 58 5 0 0 0 0 0 0 0 0 0 0 0 0 0 0 5 0 0 0 46 25 16
19 100 73 100 100 53 79 63 100 100 100 100 100 100 100 100 100 57 12 25 5 3 4 5 0 0 0 0 0 0 0 0 0 0 0 0 0 0 0 4 0 4 90 68
95 100 100 100 83 5 40 64 100 100 100 100 100 100 100 100 100 100 100 99 19 0 0 4 0 0 0 0 0 0 0 0 0 0 0 3 0 0 9 24 14 62 58 73